Location: ???????
(52.3000°N, 54.4667°E)
Time: 12:13:35
(UTC+00:00)

ARGOS - Pass Details

Date: 24 January 2020
Orbit: 821 x 834 km, 98.5° (Epoch: 17 February)

Event Time Altitude Azimuth Distance (km) Brightness Sun altitude
Exits shadow 14:39:01 24° 68° (ENE) 1,647 4.1 -15.8°
Maximum altitude 14:39:42 25° 57° (ENE) 1,623 4.1 -15.9°
Drops below altitude 10° 14:44:00 10° 4° (N) 2,446 5.5 -16.6°
Sets 14:46:44 0° 352° (N) 3,387 6.3 -17.0°
